Location: Newark
(45.4422°N, 16.2769°E)
Time: 02:36:45
(UTC+00:00)

Courier 1B - Pass Details

Date: 18 December 2019
Orbit: 962 x 1209 km, 28.3° (Epoch: 23 January)

Event Time Altitude Azimuth Distance (km) Brightness Sun altitude
Rises 20:22:31 0° 247° (WSW) 3,814 11.0 -52.7°
Enters shadow 20:23:25 - 244° (WSW) 3,573 10.7 -52.8°
Reaches altitude 10° 20:26:20 10° 227° (SW) 2,910 - -53.3°
Maximum altitude 20:30:28 16° 192° (SSW) 2,521 - -54.0°
Drops below altitude 10° 20:34:43 10° 156° (SSE) 3,015 - -54.6°
Sets 20:38:48 0° 137° (SE) 4,020 - -55.3°
